Location: Newark
(40.0251°N, 85.2247°W)
Time: 11:02:35
(UTC+00:00)

Hubble Space Telescope - Pass Details

Date: 18 December 2019
Orbit: 536 x 540 km, 28.5° (Epoch: 28 January)

Event Time Altitude Azimuth Distance (km) Brightness Sun altitude
Exits shadow 10:56:21 14° 197° (SSW) 1,524 3.0 -22.4°
Maximum altitude 10:57:34 16° 176° (S) 1,442 3.1 -22.1°
Drops below altitude 10° 11:00:07 10° 138° (SE) 1,785 4.2 -21.6°
Sets 11:03:05 0° 116° (ESE) 2,677 5.8 -21.1°
